sat.trackr.live / text

‹ back to catalog

STARLINK-32882

NORAD 62963 · 2025-029R

PAYLOAD ACTIVE UNKNOWN

§ Identity

Operator
Country
US
Launch date
2025-02-11
Launch site
AFWTR
Launch vehicle
Mass (kg)
RCS (m²)

Purposes: comms

External: N2YO · Heavens-Above · Gunter

§ Orbital elements

Epoch: 2026-05-24T23:18:07.704000Z

Period
93.85 min
Inclination
53.1592°
Eccentricity
0.0001359
Mean motion
15.34398273 rev/d
Perigee alt
461.8 km
Apogee alt
463.6 km
Semi-major
6,840.8 km
B*
5.4447e-4
RAAN
235.5092°
Arg perigee
87.2961°
Mean anomaly
272.8197°
Rev number
7,303

§ Raw data

STARLINK-328821 62963U 25029R   26144.97092250  .00018063  00000+0  54447-3 0  99992 62963  53.1592 235.5092 0001359  87.2961 272.8197 15.34398273 73034

JSON: /api/v1/satellites/62963 · /tle

For live sub-satellite position, see the globe view (requires WebGL).

§ Visibility from observer

Set your observer location to see the next 7 days of passes ≥ 10°. The values pass through the URL so the page stays shareable.

No JS? Fill the form by hand. The geolocation button needs JavaScript.